MOLNIYA 1-49

Last updated on Jan. 26, 2021, 8:12 a.m. UTC

1 12156U 81009A   21025.68565077 -.00000236  00000-0 -28519-2 0  9997
2 12156  61.8257 240.3810 7188660 255.4876  21.4160  2.05709580211078
UTC
Height (km)
Latitude
Longitude
Inclination
Orbital Period
UTC large
Height (km)
Speed (km/s)
/
Latitude / Longitude
Inclination (degrees)
Orbital Period (minutes)
Azimuth
Elevation
Range (km)
Doppler Factor
iOS Compass Heading
iOS Angle

Next 30 passes for location: Hong Kong

Rise time Rise Azimuth (degrees) Set time Set Azimuth (degrees) Duration Max altitude (degrees)

No matching passes for this satellites